Snel-info
Kleurcode:
Geel
Er mag gevlogen worden.
Voorzichtigheid geboden!
Laatste update: 23/09/2017
Kleurcode informatie

Grasmaaien:

Geen maaibeurten gepland.

Volgende vliegdagen:

  • wo 1 november : Allerheiligen
  • wo 15 november : Dag vd Dynastie
  • ma 25 december : Kerstmis
Alle extra vliegdagen

Weersituatie op PMF:

5_Paasweekend_24-apr-2011_13_Thieu.jpg

Huidige weersituatie

Huidig weerbeeld in Kleine Brogel, Belgium
Huidige wind in Kleine Brogel, Belgium

Dit is het bericht voor Kleine Brogel, Belgium en werd 9 minuten geleden gemaakt.
De wind waaide met een snelheid van 0.5 meter per seconde (1.9 km/h) uit verschillende richtingen..
De temperatuur was 12 °C. De atmosferische druk was 1023 hPa. De relative luchtvochtigheid was 87.6%. Het algemene zicht was meer dan 10 kilometer.

De onbewerkte METAR gegevens waarop dit bericht is gebaseerd zijn:
EBBL 231755Z AUTO VRB01KT 9999 NCD 12/10 Q1023 BLU


Opmerking:
De wind blijkt op PMF meestal iets krachtiger te waaien dan op Kleine Brogel. De windrichting klopt dan weer wel.




KMI

De weersvoorspellingen van het KMI vind je via deze link.


Buienradar

Op www.buienradar.nl kun je zelf zien waar het nu en de komende uren regent.